Welcome to the New NWS' Forecast!
Most changes are behind the scenes, but click here for differences you might notice.
Latest weather observations around

Demopolis Municipal Airport (KDYA)

Using English Units (Switch to International System of Units)
Date/ Time (CDT) Wind (mph) Vis. (mi) Weather Sky Cond. Temp (°F) Rel. Humidity Wind Chill (°F) Heat Index (°F) Pressure Precip. (in)
Air Dwpt 6 hour Altimeter (inHg) Sea level (inHg) 1 hr 3 hr 6 hr
Max Min
Oct 16 07:55 NW 3 4 Fog/Mist OVC007 63 63     99%     30.15        
Oct 16 07:35 Calm 7 Cloudy OVC007 64 63     99%     30.14        
Oct 16 07:15 NNW 3 7 Cloudy OVC007 64 63     99%     30.14        
Oct 16 06:55 NW 3 5 Fog/Mist OVC007 64 63     99%     30.14        
Oct 16 06:35 NNW 6 7 Cloudy OVC007 64 63     98%     30.14        
Oct 16 06:15 NNW 7 7 Cloudy OVC007 64 63     97%     30.14        
Oct 16 05:55 NW 5 7 Cloudy OVC007 65 64     96%     30.13        
Oct 16 05:35 NNW 7 5 Fog/Mist OVC007 65 65     97%     30.12        
Oct 16 05:15 NNW 5 7 Cloudy OVC007 66 65     98%     30.12        
Oct 16 04:55 NNW 5 7 Cloudy OVC007 66 65     97%     30.12        
Oct 16 04:35 NW 5 7 Cloudy OVC007 66 65     97%     30.11        
Oct 16 04:15 NW 6 7 Cloudy OVC007 67 66     97%     30.11        
Oct 16 03:55 NNW 7 5 Fog/Mist OVC007 67 66     97%     30.11        
Oct 16 03:35 NW 3 7 Cloudy OVC007 68 67     96%     30.11        
Oct 16 03:15 NNW 7 7 Cloudy OVC007 68 68     99%     30.11        
Oct 16 02:55 NNW 5 7 Cloudy OVC007 69 68     98%     30.11        
Oct 16 02:35 NNW 6 7 Cloudy OVC007 69 69     100%     30.11        
Oct 16 02:15 NW 3 7 Cloudy OVC007 70 70     100%     30.11        
Oct 16 01:55 NNW 5 7 Mostly Cloudy BKN007 BKN090 70 70     100%     30.1        
Oct 16 01:35 N 3 7 Partly Cloudy SCT090 SCT110 70 70     100%   72 30.1        
Oct 16 01:15 NW 3 7 Cloudy OVC090 71 71     100%   73 30.11        
Oct 16 00:55 NW 3 7 Cloudy OVC090 72 72     100%   73 30.11        
Oct 16 00:35 Calm 10 Cloudy OVC090 72 72     100%   74 30.11        
Oct 16 00:15 WNW 3 7 Cloudy OVC090 72 72     100%   74 30.11        
Notice The following observation data may not be complete
Oct 15 23:55 Calm 7 Cloudy OVC090          %     30.11        
Notice The following observation data may not be complete
Oct 15 23:35 NW 3 7 Cloudy OVC090          %     30.1        
Notice The following observation data may not be complete
Oct 15 23:15 Calm 7 Cloudy OVC090          %     30.1        
Notice The following observation data may not be complete
Oct 15 22:55 Calm 3 Fog/Mist OVC090          %     30.11        
Notice The following observation data may not be complete
Oct 15 22:35 Calm 4 Haze OVC090          %     30.12        
Notice The following observation data may not be complete
Oct 15 22:15 Calm 4 Fog/Mist OVC090          %     30.12        
Oct 15 21:55 Calm 5 Fog/Mist BKN090 73 73     100%   74 30.12        
Oct 15 21:35 Calm 5 Fog/Mist SCT090 73 73     100%   75 30.1        
Oct 15 21:15 Calm 7 Cloudy SCT008 OVC090 73 73     99%   75 30.11        
Oct 15 20:55 W 3 7 Cloudy BKN080 OVC100 73 73     99%   75 30.12        
Oct 15 20:35 Calm 10 Light Rain SCT050 SCT065 OVC080 73 73     100%   75 30.1        
Oct 15 20:15 SE 3 5 Rain SCT050 BKN065 OVC090 74 73     98%   76 30.1        
Oct 15 19:55 SSW 5 10 Rain BKN065 BKN080 OVC100 75 73     91%   77 30.09        
Oct 15 19:35 Calm 10 Cloudy OVC055 75 75     100%   77 30.09        
Notice The following observation data may not be complete
Oct 15 19:15 Calm 10 Cloudy OVC055          %     30.09        
Oct 15 18:55 Calm 10 Light Rain OVC065 76 72     86%   77 30.07        
Oct 15 18:35 Calm 10 Mostly Cloudy SCT050 BKN065 BKN080 76 71     84%   78 30.07        
Oct 15 18:15 Calm 7 Partly Cloudy SCT070 77 71     82%   78 30.06        
Oct 15 17:55 Calm 7 Clear CLR 78 71     79%   79 30.05        
Oct 15 17:35 Calm 10 Partly Cloudy SCT044 SCT050 80 69     71%   82 30.05        
Oct 15 14:55 N 3 7 Cloudy SCT032 BKN060 OVC080 84 69     61%   87 30.04        
Oct 15 14:35 WNW 6 10 Mostly Cloudy BKN047 BKN060 83 68     60%   86 30.05        
Oct 15 14:15 NW 5 7 Mostly Cloudy SCT035 BKN045 BKN055 85 69     58%   89 30.05        
Oct 15 13:55 W 7 10 Partly Cloudy SCT038 SCT080 86 68     56%   89 30.06        
Oct 15 13:35 Calm 7 Partly Cloudy SCT029 SCT035 SCT070 84 69     60%   88 30.06        
Oct 15 13:15 WNW 7 7 Mostly Cloudy SCT029 BKN037 BKN070 83 69     63%   87 30.07        
Oct 15 12:55 WNW 7 7 Partly Cloudy SCT029 SCT035 85 69     60%   89 30.08        
Oct 15 12:35 WSW 7 7 Partly Cloudy SCT024 82 69     65%   86 30.08        
Oct 15 12:15 SW 5 7 Mostly Cloudy BKN024 83 70     63%   87 30.09        
Oct 15 11:55 SSW 6 7 Mostly Cloudy BKN024 BKN055 83 70     65%   87 30.09        
Oct 15 11:35 SSW 6 7 Cloudy SCT018 SCT040 OVC055 80 70     72%   83 30.09        
Oct 15 11:15 Calm 7 Cloudy SCT020 BKN048 OVC055 79 71     77%   80 30.1        
Oct 15 10:55 SSW 5 7 Cloudy SCT013 BKN041 OVC050 78 71     79%   79 30.11        
Oct 15 10:35 SW 7 7 Cloudy BKN011 BKN017 OVC043 77 71     82%   78 30.11        
Oct 15 10:15 Calm 7 Cloudy SCT011 BKN021 OVC043 76 71     84%   78 30.11        
Oct 15 09:55 Calm 7 Cloudy SCT006 OVC021 75 71     90%   76 30.1        
Oct 15 09:35 Calm 5 Fog/Mist OVC006 73 71     93%   74 30.1        
Oct 15 09:15 Calm 5 Fog/Mist OVC004 71 71     100%   73 30.1        
Notice The following observation data may not be complete
Oct 15 08:55 Calm 5 Haze OVC006          %     30.09        
Notice The following observation data may not be complete
Oct 15 08:35 Calm 5 Haze OVC008          %     30.09        
Notice The following observation data may not be complete
Oct 15 08:15 Calm 4 Haze BKN010 OVC035          %     30.08        
Notice The following observation data may not be complete
Oct 15 07:55 Calm 3 Fog/Mist SCT012 BKN028 OVC035          %     30.07        
Notice The following observation data may not be complete
Oct 15 07:35 Calm 4 Haze BKN014 BKN019 BKN028          %     30.07        
Notice The following observation data may not be complete
Oct 15 07:15 Calm 5 Haze SCT010 BKN016 OVC029          %     30.06        
Notice The following observation data may not be complete
Oct 15 06:55 Calm 4 Haze BKN013 BKN019 BKN027          %     30.06        
Notice The following observation data may not be complete
Oct 15 06:35 Calm 5 Haze BKN015 OVC027          %     30.05        
Notice The following observation data may not be complete
Oct 15 06:15 Calm 4 Haze BKN017          %     30.05        
Notice The following observation data may not be complete
Oct 15 05:55 Calm 4 Haze CLR          %     30.04        
Notice The following observation data may not be complete
Oct 15 05:35 Calm 7 Partly Cloudy SCT019          %     30.04        
Notice The following observation data may not be complete
Oct 15 05:15 Calm 3 Fog/Mist CLR          %     30.04        
Notice The following observation data may not be complete
Oct 15 04:55 Calm 5 Haze CLR          %     30.03        
Notice The following observation data may not be complete
Oct 15 04:35 Calm 5 Haze CLR          %     30.03        
Notice The following observation data may not be complete
Oct 15 04:15 Calm 4 Haze CLR          %     30.03        
Notice The following observation data may not be complete
Oct 15 03:55 Calm 5 Haze CLR          %     30.03        
Notice The following observation data may not be complete
Oct 15 03:35 Calm 5 Haze CLR          %     30.03        
Notice The following observation data may not be complete
Oct 15 03:15 Calm 5 Haze CLR          %     30.04        
Notice The following observation data may not be complete
Oct 15 02:55 Calm 4 Haze CLR          %     30.04        
Notice The following observation data may not be complete
Oct 15 02:35 Calm 5 Haze CLR          %     30.04        
Notice The following observation data may not be complete
Oct 15 02:15 Calm 7 Clear CLR          %     30.04        
Notice The following observation data may not be complete
Oct 15 01:55 Calm 5 Haze CLR          %     30.04        
Notice The following observation data may not be complete
Oct 15 01:35 Calm 4 Fog/Mist CLR          %     30.04        
Oct 15 01:15 Calm 5 Fog/Mist CLR 65 65     100%     30.04        
Oct 15 00:55 Calm 5 Fog/Mist CLR 66 66     100%     30.04        
Oct 15 00:35 Calm 7 Clear   67 67     100%     30.03        
Oct 15 00:15 Calm 7 Clear   67 66     97%     30.04        
Oct 14 23:55 Calm 10 Clear   68 67     97%     30.04        
Oct 14 23:35 Calm 10 Clear CLR 69 67     94%     30.04        
Oct 14 23:15 SE 3 7 Clear CLR 69 67     92%     30.04        
Oct 14 22:55 SE 3 10 Clear CLR 69 67     92%     30.04        
Oct 14 22:35 Calm 7 Clear CLR 69 67     93%     30.03        
Oct 14 22:15 Calm 7 Clear CLR 67 66     98%     30.03        
Oct 14 21:55 Calm 7 Clear CLR 67 66     98%     30.03        
Oct 14 21:35 Calm 10 Clear CLR 68 67     95%     30.03        
Oct 14 21:15 Calm 10 Clear CLR 68 67     96%     30.02        
Oct 14 20:55 Calm 7 Clear CLR 68 67     96%     30.02        
Oct 14 20:35 Calm 10 Clear CLR 69 67     94%     30.01        
Oct 14 20:15 Calm 10 Clear CLR 69 68     97%     30        
Oct 14 19:55 Calm 10 Clear CLR 69 67     93%     29.99        
Oct 14 19:35 Calm 7 Clear CLR 69 68     97%     29.99        
Oct 14 19:15 Calm 10 Clear CLR 70 69     95%   71 29.99        
Oct 14 18:55 Calm 10 Partly Cloudy SCT120 72 69     92%   73 29.99        
Oct 14 18:35 Calm 10 Partly Cloudy SCT120 73 69     89%   74 29.98        
Oct 14 18:15 Calm 7 Partly Cloudy SCT120 75 69     81%   76 29.98        
Oct 14 17:55 Calm 10 Partly Cloudy SCT120 77 69     76%   78 29.97        
Oct 14 17:35 Calm 7 Clear CLR 80 66     63%   82 29.97        
Oct 14 17:15 Calm 7 Clear CLR 81 66     61%   83 29.97        
Oct 14 16:55 SE 3 7 Clear CLR 82 64     55%   84 29.97        
Oct 14 16:35 SSE 5 10 Partly Cloudy SCT120 84 64     51%   85 29.97        
Oct 14 16:15 SSE 3 7 Clear CLR 84 63     50%   85 29.97        
Oct 14 15:55 SSE 5 10 Clear CLR 85 63     49%   86 29.98        
Oct 14 15:35 SSE 3 10 Clear CLR 84 63     49%   85 29.98        
Oct 14 15:15 SE 5 5 Haze SCT110 86 63     47%   87 29.98        
Oct 14 14:55 SE 6 10 Cloudy OVC110 86 64     47%   87 29.98        
Oct 14 14:35 S 3 10 Partly Cloudy SCT110 82 63     52%   84 29.98        
Oct 14 14:15 SSE 6 10 Partly Cloudy SCT120 84 63     49%   85 29.98        
Oct 14 13:55 S 6 7 Mostly Cloudy BKN120 83 63     52%   84 29.99        
Oct 14 13:35 S 5 10 Cloudy OVC120 83 63     50%   84 29.99        
Oct 14 13:15 S 8 7 Cloudy OVC120 82 62     51%   83 30        
Oct 14 12:55 SSE 7 10 Cloudy OVC120 83 63     51%   84 30        
Oct 14 12:35 SSE 9 7 Partly Cloudy SCT110 83 63     51%   84 30.01        
Oct 14 12:15 S 7 10 Clear CLR 82 64     55%   84 30.01        
Oct 14 11:55 SSE 7 10 Clear CLR 81 64     57%   83 30.02        
Oct 14 11:35 SSE 6 10 Clear CLR 80 64     58%   82 30.03        
Oct 14 11:15 SSE 6 10 Clear CLR 80 63     57%   80 30.04        
Oct 14 10:55 SSE 6 10 Partly Cloudy SCT120 78 62     58%   79 30.03        
Oct 14 10:35 SE 5 10 Partly Cloudy SCT120 75 61     61%   75 30.04        
Oct 14 10:15 SSE 5 10 Clear CLR 76 62     62%   76 30.04        
Oct 14 09:55 Calm 10 Partly Cloudy SCT110 72 61     69%   72 30.04        
Oct 14 09:35 Calm 10 Partly Cloudy SCT110 70 61     73%     30.04        
Oct 14 09:15 Calm 10 Partly Cloudy SCT110 69 60     73%     30.03        
Oct 14 08:55 SE 3 10 Mostly Cloudy BKN110 68 60     75%     30.01        
Oct 14 08:35 SE 5 10 Partly Cloudy SCT120 67 60     79%     30        
Oct 14 08:15 SE 6 10 Mostly Cloudy BKN120 65 60     83%     30        
Oct 14 07:55 ESE 3 10 Cloudy OVC120 64 60     89%     30        
Oct 14 07:35 Calm 10 Cloudy OVC120 63 61     95%     30        
Oct 14 07:15 Calm 10 Cloudy OVC110 62 61     94%     30        
Oct 14 06:55 Calm 10 Cloudy OVC110 63 61     94%     30        
Oct 14 06:35 Calm 10 Cloudy OVC110 63 60     90%     29.99        
Oct 14 06:15 ESE 5 10 Cloudy OVC110 61 60     97%     29.98        
Oct 14 05:55 Calm 10 Cloudy OVC110 62 60     94%     29.99        
Oct 14 05:35 Calm 10 Cloudy SCT100 OVC120 62 60     93%     29.99        
Oct 14 05:15 Calm 10 Cloudy OVC110 63 60     88%     29.99        
Oct 14 04:55 SE 3 10 Cloudy OVC110 63 59     87%     29.96        
Oct 14 04:35 SE 5 10 Cloudy OVC100 62 59     90%     29.97        
Oct 14 04:15 SE 3 10 Mostly Cloudy BKN100 61 59     94%     29.96        
Oct 14 03:55 Calm 10 Partly Cloudy SCT100 60 59     96%     29.96        
Oct 14 03:35 Calm 10 Clear CLR 61 59     93%     29.97        
Oct 14 03:15 SE 3 10 Clear CLR 62 59     91%     29.96        
Oct 14 02:55 ESE 5 10 Clear CLR 60 59     96%     29.96        
Oct 14 02:35 Calm 10 Clear CLR 60 59     97%     29.97        
Oct 14 02:15 Calm 10 Clear CLR 61 59     95%     29.96        
Oct 14 01:55 Calm 10 Partly Cloudy SCT100 63 60     91%     29.96        
Oct 14 01:35 Calm 10 Clear CLR 62 60     94%     29.95        
Oct 14 01:15 Calm 10 Clear CLR 62 60     94%     29.94        
Oct 14 00:55 Calm 10 Clear CLR 62 60     94%     29.95        
Oct 14 00:35 Calm 10 Clear CLR 62 60     95%     29.94        
Oct 14 00:15 Calm 10 Clear CLR 62 60     93%     29.94        
Oct 13 23:55 Calm 10 Clear CLR 62 59     91%     29.96        
Oct 13 23:35 N 3 10 Clear CLR 63 60     89%     29.96        
Oct 13 23:15 Calm 10 Clear CLR 63 59     85%     29.96        
Oct 13 22:55 Calm 10 Clear CLR 64 58     81%     29.95        
Oct 13 22:35 SE 6 10 Partly Cloudy SCT100 61 60     97%     29.94        
Notice The following observation data may not be complete
Oct 13 22:15   10 Partly Cloudy SCT100          %              
Oct 13 21:15 Calm 10 Clear CLR 62 61     97%     29.97        
Oct 13 20:35 Calm 10 Clear CLR 62 61     97%     29.96        
May 15 06:15 Calm 7 Clear   64 63     94%     29.94        
May 14 20:15 Calm 10 Clear   76 68     76%   77 29.91        
May 14 06:35 Calm 4 Fog/Mist CLR 63 63     100%     30.02        
May 14 05:35 Calm 7 Clear   63 62     99%     30.02        
May 14 00:35 Calm 7 Clear CLR 67 65     92%     30.04        
May 13 20:35 Calm 10 Clear CLR 73 68     84%   74 30.02        
May 13 20:15 Calm 10 Clear CLR 74 68     81%   75 30.01        
May 13 18:55 Calm 10 Clear CLR 85 69     59%   89 30.01        
May 13 17:15 NNE 3 10 Clear CLR 91 59     34%   90 30.02        
May 13 16:35 ENE 3 10 Clear CLR 91 58     33%   90 30.02        
May 13 13:35 N 3 10 Partly Cloudy SCT060 90 59     36%   89 30.09        
May 13 12:15 N 5 10 Clear   88 60     39%   88 30.12        
May 13 10:35 NNW 6 10 Clear CLR 83 62     48%   84 30.14        
May 13 09:55 NW 5 10 Clear CLR 81 64     56%   83 30.14        
May 13 08:15 Calm 10 Clear CLR 72 64     76%   73 30.13        
May 13 06:35 Calm 5 Fog/Mist CLR 60 59     97%     30.1        
May 13 02:15 Calm 10 Clear CLR 63 61     93%     30.05        
May 12 21:35 Calm 10 Clear CLR 69 65     85%     30.08        
Notice The following observation data may not be complete
May 12 20:15 Calm 10 Clear CLR   66      %     30.06        
Notice The following observation data may not be complete
May 12 19:55 Calm 10 Clear CLR   66      %     30.05        
May 12 16:55 SSW 5 10 Clear CLR 90 53     28%   88 30.06        
May 12 15:35 Calm 10 Clear CLR 90        %     30.08        
May 12 06:35 Calm 10 Clear CLR 55 53     94%     30.14        
May 12 02:55 Calm 10 Clear CLR 58 55     90%     30.07        
Notice The following observation data may not be complete
May 12 01:15 Calm 10 Clear CLR   56      %     30.07        
May 11 20:55 Calm 10 Clear CLR 69 64     83%     30.06        
Jun 11 23:15 SE 5 10 Clear   74 74     100%   76 30.1        
Notice The following observation data may not be complete
Jun 11 20:35   10 Clear            %              
Jun 11 20:15 N 3 10 Clear   74 74     100%   76 30.06        
Notice The following observation data may not be complete
Jun 11 19:35   10 Clear            %              
Jun 11 13:55 S 3 10 Clear   89 65     44%   91 30.09        
Notice The following observation data may not be complete
Jun 11 05:15   10 Clear            %              
Jun 11 02:15 Calm 10 Clear   67 66     99%     30.04        
Jun 11 00:35 Calm 10 Clear   67 66     96%     30.05        
Jun 10 22:15 Calm 10 Clear   71 67     87%   71 30.05        
Notice The following observation data may not be complete
Jun 10 20:35 Calm 10 Clear     66      %     30.01        
Jun 10 17:55 SE 6 10 Clear   87 60     40%   87 29.99        
Notice The following observation data may not be complete
Jun 10 15:15   10 Clear            %              
Jun 10 12:35 SSE 8 10 Clear   85 60     44%   85 30.06        
Notice The following observation data may not be complete
Jun 10 11:15   10 Clear            %              
Jun 10 07:35 Calm 10 Clear   67 65     93%     30.03        
Notice The following observation data may not be complete
Jun 10 03:55 Calm 10 Clear            %     29.98        
Jun 09 22:35 Calm 10 Clear   65 64     98%     29.97        
Jun 08 06:55 Calm 10 Clear   61 59     93%     29.91        
Notice The following observation data may not be complete
Jun 08 06:35   10 Clear            %              
Notice The following observation data may not be complete
Jun 07 18:35   10 Clear            %              
Jun 07 14:55 N 10 10 Clear   83 59     43%   83 29.8        
Notice The following observation data may not be complete
Jun 07 10:15   10 Clear            %              
Jun 06 14:35 NE 10 10 Clear   76 68     77%   77 29.74        
Jun 06 13:35 NW 6 10 Clear   81 71     70%   85 29.73        
Jun 06 10:15 NNW 5 10 Clear   76 73     88%   78 29.77        
Jun 06 09:55 N 3 10 Clear   76 73     92%   77 29.77        
Jun 05 16:35 WSW 3 10 Clear   78 71     78%   79 29.75